Regional Weather Roundup
Issued by NWS

Home | Current Version | Previous Version | Graphics & Text | Print | Product List | Glossary On
Versions: 1 2 3 4 5 6 7 8 9 10 11 12 13 14 15 16 17 18 19 20 21 22 23 24 25 26 27 28 29 30 31 32 33 34 35 36 37 38 39 40 41 42 43 44 45 46 47 48 49 50
000
ASUS43 KOAX 292110
RWRNE

WEATHER ROUNDUP FOR NEBRASKA
NATIONAL WEATHER SERVICE OMAHA NE
400 PM CDT SUN MAR 29 2015

NOTES: SATELLITE DATA IS BEING USED TO AUGMENT CLOUD COVER ABOVE
       12000 FEET.
       "FAIR" INDICATES FEW OR NO CLOUDS BELOW 12,000 FEET WITH NO
       SIGNIFICANT WEATHER AND/OR OBSTRUCTIONS TO VISIBILITY.

  * THESE STATIONS DO NOT REPORT WEATHER SUCH AS RAIN...SNOW OR FOG.

NEZ001>004-019>022-054>056-292200-
NEBRASKA PANHANDLE

CITY           SKY/WX    TMP DP  RH WIND       PRES   REMARKS
SCOTTSBLUFF    SUNNY     64  25  22 W7G21     30.16F
ALLIANCE       SUNNY     61  24  24 NW8G22    30.15F
CHADRON        SUNNY     63  28  26 W12G24    30.13F
KIMBALL        SUNNY     60  23  23 NW7       30.19F
SIDNEY         SUNNY     62  25  24 N14       30.20F
$$

NEZ057>060-069>072-079>082-292200-
SOUTHWEST NEBRASKA

CITY           SKY/WX    TMP DP  RH WIND       PRES   REMARKS
NORTH PLATTE   SUNNY     63  17  17 NW15      30.16F
IMPERIAL         N/A     64  22  20 N17       30.18F
LEXINGTON      SUNNY     64  11  12 N21       30.14F
MCCOOK         SUNNY     66  19  16 N17G30    30.16F
OGALLALA       SUNNY     62  20  19 N14G21    30.17F
$$

NEZ005>010-023>029-035>040-094-292200-
NORTH CENTRAL NEBRASKA

CITY           SKY/WX    TMP DP  RH WIND       PRES   REMARKS
VALENTINE      SUNNY     60  18  19 NW14G25   30.12F
AINSWORTH      SUNNY     60  15  17 NW21G28   30.12F
BROKEN BOW     SUNNY     64  16  15 N22G35    30.13S
O`NEILL        SUNNY     60  22  23 NW21G28   30.10S
ORD            SUNNY     63  13  14 N18G33    30.11R
THEDFORD       SUNNY     61  18  19 N17G23    30.15F
$$

NEZ041-046>049-061>064-073>077-083>087-292200-
SOUTH CENTRAL NEBRASKA

CITY           SKY/WX    TMP DP  RH WIND       PRES   REMARKS
GRAND ISLAND   SUNNY     63  19  18 N23G36    30.11S
AURORA         SUNNY     62  24  22 N16G30    30.09F
HASTINGS       SUNNY     64  19  17 N22G33    30.11R
HEBRON         SUNNY     64  22  20 N24G32    30.08R
HOLDREGE       SUNNY     63  10  12 NW17G29   30.13S
KEARNEY *      SUNNY     64  16  15 N23       30.12S
YORK           SUNNY     63  30  29 N17G23    30.08S
$$

NEZ011>018-030>034-042>045-292200-
NORTHEAST NEBRASKA

CITY           SKY/WX    TMP DP  RH WIND       PRES   REMARKS
NORFOLK        SUNNY     62  25  24 N22G31    30.05S
ALBION         SUNNY     61  21  22 NW20G28   30.08S
BLAIR          SUNNY     60  29  31 NW23G30   30.02S
COLUMBUS *     SUNNY     61  27  27 N15G29    30.09R
FREMONT        SUNNY     62  26  24 N15G26    30.05S
TEKAMAH        SUNNY     63  28  26 NW22G36   30.02S
WAYNE          SUNNY     62  24  23 N22G31    30.05R
$$

NEZ050>053-065>068-078-088>093-292200-
SOUTHEAST NEBRASKA

CITY           SKY/WX    TMP DP  RH WIND       PRES   REMARKS
LINCOLN        SUNNY     63  30  28 N25G38    30.07S
OMAHA EPPLEY   MOSUNNY   61  33  35 NW20G36   30.02R
BEATRICE       SUNNY     62  34  35 N21G32    30.07S
FALLS CITY     SUNNY     60  38  43 NW22G35   30.03R
NEBRASKA CITY  SUNNY     60  31  33 N23G30    30.04R
PLATTSMOUTH    SUNNY     60  29  30 NW25G31   30.03S
$$

NEZ044-045-051>053-067-292200-
OMAHA AREA

CITY           SKY/WX    TMP DP  RH WIND       PRES   REMARKS
OMAHA EPPLEY   MOSUNNY   61  33  35 NW20G36   30.02R
BLAIR          SUNNY     60  29  31 NW23G30   30.02S
FREMONT        SUNNY     62  26  24 N15G26    30.05S
MILLARD        SUNNY     61  32  33 NW15G28   30.03S
OFFUTT AFB     SUNNY     61  34  37 NW17G26   30.02S
PLATTSMOUTH    SUNNY     60  29  30 NW25G31   30.03S
WAHOO          FAIR      62  23  22 NW22G32   30.04S
$$



USA.gov is the U.S. government's official web portal to all federal, state and local government web resources and services.